Flag for France Weather past 2 weeks in Dijon, France

Now
72 °F

Clear.


Feels Like: 76 °F
Forecast: 54 / 71 °F
Wind: 3 mph from North

Location: Dijon Airport

Current Time: Oct 1, 2014 at 6:34:16 PM

Latest Report: Oct 1, 2014 at 6:00 PM


Visibility: N/A

Pressure: 30.30 "Hg

Humidity: 61%

Dew point: 57 °F

Location of DijonLocation

Historic Weather in Dijon — Graph

°F

Dijon temperature yesterday

Maximum temperature yesterday: 73 °F (at 2:00 PM)
Minimum temperature yesterday: 55 °F (at 7:00 AM)
Average temperature yesterday: 64 °F

Past Weeks' High & Low Weather Summary

 TemperatureHumidityPressure
High81 °F (Sep 16, 5:00 PM)100% (Sep 18, 7:00 AM)30.33 "Hg (Sep 18, 7:00 AM)
Low45 °F (Sep 23, 7:00 AM)40% (Sep 23, 5:00 PM)29.80 "Hg (Sep 17, 3:30 PM)
Average61 °F77%30.12 "Hg
* Reported Sep 16 5:00 PM — Oct 1 5:00 PM, Dijon, Weather by CustomWeather, © 2014

Note: Actual official high and low records may vary slightly from our data, if they occured in-between our weather recording intervals... More about our weather records

Advertising

Dijon weather history for previous 24 hours

 ConditionsComfort  
Time TempWeatherWind HumidityBarometerVisibility
5:00 PM
Oct 1
73 °FClear.5 mph53%30.30 "HgN/A
4:30 PM73 °FClear.6 mph57%30.30 "HgN/A
4:00 PM72 °FMostly cloudy.8 mph61%30.30 "HgN/A
3:30 PM73 °FClear.3 mph57%30.30 "HgN/A
3:00 PM72 °FBroken clouds.5 mph61%30.30 "HgN/A
2:30 PM73 °FClear.3 mph57%30.30 "HgN/A
2:00 PM73 °FPassing clouds.6 mph57%30.33 "HgN/A
1:30 PM72 °FScattered clouds.5 mph61%30.33 "HgN/A
1:00 PM72 °FPartly sunny.5 mph61%30.33 "HgN/A
12:30 PM72 °FPassing clouds.5 mph65%30.33 "HgN/A
12:00 PM70 °FClear.3 mph69%30.33 "HgN/A
11:30 AM68 °FClear.2 mph73%30.33 "HgN/A
11:00 AM66 °FClear.3 mph78%30.33 "HgN/A
10:30 AM64 °FClear.5 mph78%30.33 "HgN/A
10:00 AM63 °FClear.5 mph83%30.33 "HgN/A
9:30 AM59 °FClear.3 mph88%30.33 "HgN/A
9:00 AM57 °FClear.3 mph94%30.33 "HgN/A
8:30 AM54 °FClear.5 mph100%30.30 "HgN/A
8:00 AM52 °FClear.5 mph100%30.30 "Hg5 mi
7:30 AM52 °FClear.3 mph100%30.30 "Hg4 mi
7:00 AM52 °FFog.5 mph94%30.30 "HgN/A
6:30 AM54 °FFog.2 mph94%30.30 "Hg2 mi
6:00 AM54 °FClear.2 mph100%30.30 "Hg4 mi
5:30 AM54 °FClear.3 mph100%30.30 "Hg4 mi
4:30 AM54 °FClear.1 mph88%30.30 "Hg6 mi
4:00 AM54 °FClear.2 mph100%30.30 "HgN/A
3:30 AM55 °FClear.2 mph94%30.30 "HgN/A
3:00 AM55 °FClear.3 mph94%30.30 "HgN/A
2:30 AM57 °FClear.7 mph88%30.30 "HgN/A
2:00 AM57 °FClear.5 mph94%30.30 "HgN/A
1:30 AM57 °FClear.5 mph94%30.30 "HgN/A
1:00 AM57 °FClear.5 mph94%30.30 "HgN/A
12:30 AM57 °FClear.3 mph94%30.30 "HgN/A
12:00 AM59 °FClear.3 mph88%30.30 "HgN/A
11:30 PM
Sep 30
59 °FClear.3 mph94%30.30 "HgN/A
11:00 PM59 °FClear.2 mph88%30.30 "HgN/A
10:30 PM61 °FClear.2 mph88%30.30 "HgN/A
10:00 PM63 °FClear.3 mph83%30.30 "HgN/A
9:30 PM61 °FClear.2 mph83%30.30 "HgN/A
9:00 PM63 °FClear.No wind83%30.30 "HgN/A
8:30 PM64 °FClear.No wind83%30.30 "Hg1 mi
8:00 PM66 °FLight fog.1 mph78%30.30 "HgN/A
7:30 PM68 °FScattered clouds.3 mph73%30.27 "HgN/A
7:00 PM68 °FPartly sunny.2 mph73%30.27 "HgN/A
6:30 PM70 °FClear.2 mph69%30.27 "HgN/A
6:00 PM70 °FMore clouds than sun.3 mph69%30.27 "HgN/A
Weather by CustomWeather, © 2014

See weather overviewHow to use our weather pages